SCP
0 0 0 0 0 0 0 0 0 0 0 0 0 0 0 0 0 0 0 0 0 0 0 0 0 0 0 0 0 0 0 0 0 0 0 0 0 0 0 0 0 0 0
0 0 0 0 0 0 0 0 0 0 0 0 0 0 0 0 0 0 0 0 0 0 0 0 0 0 0 0 0 0 0 0 0 0 0 0 0 0 0 0 0 0 0
0 0 0 0 0 0 0 0 0 0 0 0 0 0 0 0 0 0 0 0 0 0 0 0 0 0 0 0 0 0 0 0 0 0 0 0 0 0 0 0 0 0 0
0 0 0 0 0 0 0 0 0 0 0 0 0 0 0 0 0 0 0 0 0 0 0 0 0 0 0 0 0 0 0 0 0 0 0 0 0 0 0 0 0 0 0
0 0 0 0 0 0 0 0 0 0 0 0 0 0 0 0 0 0 0 0 0 0 0 0 0 0 0 0 0 0 0 0 0 0 0 0 0 0 0 0 0 0 0
0 0 0 0 0 0 0 0 0 0 0 0 0 0 0 0 0 0 0 0 0 0 0 0 0 0 0 0 0 0 0 0 0 0 0 0 0 0 0 0 0 0 0
0 0 0 0 0 0 0 0 0 0 0 0 0 0 0 0 0 0 0 0 0 0 0 0 0 0 0 0 0 0 0 0 0 0 0 0 0 0 0 0 0 0 0
0 0 0 0 0 0 0 0 0 0 0 0 0 0 0 0 0 0 0 0 0 0 0 0 0 0 0 0 0 0 0 0 0 0 0 0 0 0 0 0 0 0 0
0 0 0 0 0 0 0 0 0 0 0 0 0 0 0 0 0 0 0 0 0 0 0 0 0 0 0 0 0 0 0 0 0 0 0 0 0 0 0 0 0 0 0
0 0 0 0 0 0 0 0 0 0 0 0 0 0 0 0 0 0 0 0 0 0 0 0 0 0 0 0 0 0 0 0 0 0 0 0 0 0 0 0 0 0 0
0 0 0 0 0 0 0 0 0 0 0 0 0 0 0 0 0 0 0 0 0 0 0 0 0 0 0 -0 -0 -0 -0 0 0 0 0 0 0 0 0 0 0 0 0
0 0 0 0 0 0 0 0 0 0 0 0 0 0 0 0 0 0 0 0 0 0 0 0 0 0 0 0 0 -0 -0 -0 0 0 0 0 0 0 0 0 0 0 0
0 0 0 0 0 0 0 0 0 0 0 0 0 0 0 0 0 0 0 0 0 0 0 0 0 0 0 0 0 0 -0 -0 -0 0 0 0 0 0 0 0 0 0 0
0 0 0 0 0 0 0 0 0 0 0 0 0 0 0 0 0 0 0 0 0 0 0 0 0 0 0 0 0 0 0 -0 -0 -0 0 0 0 0 0 0 0 0 0
0 0 0 0 0 0 0 0 0 0 0 0 0 0 0 0 0 0 0 0 0 0 0 0 0 0 0 0 0 0 0 0 -0 -0 -0 0 0 0 0 0 0 0 0
0 0 0 0 0 0 0 0 0 0 0 0 0 0 0 0 0 0 0 0 0 0 0 0 0 0 0 0 0 0 0 0 0 0 0 0 0 0 0 0 0 0 0
0 0 0 0 0 0 0 0 0 0 0 0 0 0 0 0 0 0 0 0 0 0 0 0 0 0 0 0 0 0 0 0 0 0 0 0 0 0 0 0 0 0 0
0 0 0 0 0 0 0 0 0 0 0 0 0 0 0 0 0 0 0 0 0 0 0 0 0 0 0 0 0 0 0 0 0 0 0 0 0 0 0 0 0 0 0
0 0 0 0 0 0 0 0 0 0 0 0 0 0 0 0 0 0 0 0 0 0 0 0 0 0 0 0 0 0 0 0 0 0 0 0 0 0 0 0 0 0 0
0 0 0 0 0 0 0 0 0 0 0 0 0 0 0 0 0 0 0 0 0 0 0 0 0 0 0 0 0 0 0 0 0 0 0 0 0 0 0 0 0 0 0
0 0 0 0 0 0 0 0 0 0 0 0 0 0 0 0 0 0 0 0 0 0 0 0 0 0 0 0 0 0 0 0 0 0 0 0 0 0 0 0 0 0 0
0 0 0 0 0 0 0 0 0 0 0 0 0 0 0 0 0 0 0 0 0 0 0 0 0 0 0 0 0 0 0 0 0 0 0 0 0 0 0 0 0 0 0
0 0 0 0 0 0 0 0 0 0 0 0 0 0 0 0 0 0 0 0 0 0 0 0 0 0 0 0 0 0 0 0 0 0 0 0 0 0 0 0 0 0 0
0 0 0 0 0 0 0 0 0 0 0 0 0 -0 0 0 0 0 0 0 0 0 0 0 0 0 0 0 0 0 0 0 0 0 0 0 0 0 0 0 0 0 0
0 0 0 0 0 0 0 0 0 0 0 0 0 0 0 0 0 0 0 0 0 0 0 0 0 0 0 0 0 0 0 0 0 0 0 0 0 0 0 0 0 0 0
0 0 0 0 0 0 0 0 0 0 0 0 0 0 0 0 0 0 0 0 0 0 0 0 0 0 0 0 0 0 0 0 0 0 0 0 0 0 0 0 0 0 0
Wind_Speed
3 3 2 2 2 2 2 2 2 2 2 3 3 3 3 3 2 2 1 3 3 4 4 4 5 6 6 6 6 6 5 5 4 4 4 4 5 4 4 4 5 5 5
3 3 3 2 2 2 2 2 3 2 2 2 3 3 3 2 2 2 2 2 3 4 4 4 5 5 6 6 6 6 6 6 5 5 5 5 5 5 4 4 5 5 5
4 3 3 2 2 2 3 2 3 2 2 3 3 2 2 2 2 2 2 1 1 2 3 4 4 5 5 5 5 5 5 5 5 5 5 5 5 5 5 5 5 5 5
4 3 3 2 2 2 2 3 2 2 2 2 2 1 1 2 2 2 2 2 1 1 1 3 4 4 4 4 4 5 5 5 5 5 5 5 5 5 5 5 6 6 6
3 3 3 3 3 3 2 3 2 2 3 2 2 2 1 1 1 2 2 2 2 1 1 2 3 4 4 3 3 4 4 5 5 4 4 4 4 4 4 5 5 5 6
3 3 2 3 3 3 2 2 3 2 2 3 3 2 1 1 1 1 2 2 2 2 2 2 1 2 4 4 3 3 4 4 4 3 3 3 3 4 4 4 5 5 5
3 3 2 2 3 3 4 4 3 3 2 2 3 2 2 1 1 1 1 1 2 2 2 2 2 1 1 2 3 2 2 2 3 2 2 2 3 3 4 4 5 5 6
3 3 3 3 3 3 3 3 3 2 2 2 3 2 1 1 2 1 1 2 2 2 2 2 2 2 1 0 1 2 2 1 1 1 1 1 2 3 3 4 5 5 6
3 3 3 3 3 3 4 3 4 4 3 2 2 3 3 3 1 1 1 1 2 2 2 2 2 2 2 1 1 0 1 1 1 0 0 1 2 3 3 4 5 5 6
2 3 3 3 3 3 3 3 3 2 4 2 1 1 1 3 3 1 1 1 1 2 2 2 2 2 2 2 1 1 1 1 1 2 2 2 3 3 4 4 5 5 6
1 2 3 3 3 3 3 3 3 3 3 3 2 1 1 1 1 2 2 2 1 2 2 3 2 2 3 2 1 1 2 2 3 3 4 4 4 4 4 5 5 6 6
1 2 3 3 3 3 4 4 4 4 3 3 2 2 2 2 2 2 2 2 2 2 2 2 2 2 2 2 2 2 2 3 3 4 5 5 5 6 6 6 6 7 7
2 3 3 3 3 3 3 3 4 4 4 4 3 2 2 2 2 2 2 1 1 2 1 2 2 2 2 2 2 3 3 3 4 5 6 6 6 6 6 7 7 7 7
3 4 4 4 4 4 3 3 3 3 3 3 3 3 2 2 2 2 3 3 1 2 2 3 2 3 2 2 3 4 3 4 5 5 6 6 6 6 6 7 7 7 7
3 4 4 4 3 4 4 4 3 3 3 2 3 3 2 2 2 2 2 3 4 3 4 3 2 2 1 2 3 3 3 4 5 6 6 6 5 5 6 7 7 7 7
4 5 5 5 4 4 4 4 3 3 3 2 1 2 2 2 1 1 2 2 2 3 3 3 3 2 1 2 2 2 3 5 5 6 6 6 6 6 6 7 7 7 7
5 6 6 5 5 5 4 4 3 4 4 3 2 2 3 2 2 1 1 2 2 2 3 3 2 1 2 2 2 2 3 3 3 7 7 7 6 6 7 7 7 7 8
5 5 5 5 4 4 4 5 5 4 5 4 4 3 3 2 2 2 2 2 2 3 3 4 2 2 3 3 3 3 3 3 3 6 7 7 7 7 7 7 8 8 8
5 5 5 6 5 5 5 5 5 5 5 5 5 4 4 4 3 2 3 3 2 2 2 3 3 2 2 2 2 2 3 3 3 4 6 6 7 7 7 8 8 8 8
5 6 6 6 6 5 5 5 4 4 4 4 4 4 4 5 5 4 3 3 3 2 2 2 3 2 2 2 1 2 2 2 3 3 4 5 6 7 7 8 9 8 8
4 5 4 4 4 5 5 5 5 5 4 4 4 4 4 5 6 5 4 4 4 3 3 3 3 2 3 2 2 2 3 3 3 2 2 3 3 3 4 6 7 8 9
3 4 4 4 4 4 6 7 6 5 5 5 4 4 3 4 5 7 7 7 7 6 5 4 3 4 5 4 2 2 2 2 3 2 1 3 2 3 3 3 7 10 10
3 3 3 4 4 4 5 6 6 4 4 5 5 4 3 3 4 3 5 6 7 8 8 5 5 6 5 4 4 3 3 4 4 3 2 4 2 4 4 5 9 10 10
3 3 3 3 3 3 4 6 5 3 3 4 4 5 4 4 4 4 3 4 4 5 6 5 5 6 5 4 5 4 4 3 3 3 2 4 3 3 4 3 8 10 9
2 2 2 3 3 3 3 4 5 3 3 4 4 4 5 5 7 6 4 4 4 4 4 5 6 6 7 7 5 2 3 3 4 3 2 3 2 3 3 4 5 7 8
2 2 1 2 3 3 3 3 3 2 3 3 3 4 6 7 8 7 5 5 5 5 3 2 3 4 4 5 6 5 4 4 3 3 3 2 2 2 3 3 2 3 4
Wind_Direction
155 153 153 150 147 137 138 133 126 119 114 111 109 112 118 119 116 106 82 93 100 102 104 118 129 133 132 125 116 105 99 95 89 83 78 72 65 58 51 37 34 30 28
155 154 149 151 152 149 148 148 140 132 120 113 111 115 118 121 113 109 93 85 86 91 94 96 110 124 129 124 117 106 99 93 88 80 75 71 64 55 47 37 32 26 22
151 151 148 153 163 150 136 125 115 107 108 99 98 110 117 115 118 117 110 97 91 85 96 95 91 98 114 121 117 108 100 92 86 83 78 70 62 55 44 34 29 22 20
152 148 147 156 155 139 134 134 126 111 104 103 97 95 102 109 110 130 122 120 118 104 101 95 88 84 95 106 116 112 104 96 87 79 72 65 58 51 41 33 27 21 19
150 150 157 155 143 133 135 142 129 135 127 115 110 97 95 116 135 132 128 137 143 139 131 102 88 78 76 90 105 112 107 101 93 84 72 59 47 39 31 25 20 15 10
148 140 148 148 144 136 129 135 140 130 136 135 108 78 58 104 129 149 161 158 148 143 137 118 99 72 67 69 83 104 111 108 103 89 76 58 42 33 25 15 11 8 2
148 142 147 148 147 151 154 147 138 135 138 126 101 67 21 26 105 183 166 154 155 160 146 140 137 117 83 58 62 72 93 109 109 101 76 47 33 24 14 6 1 356 352
153 153 147 156 153 146 145 150 142 143 164 163 141 131 105 355 347 353 178 168 177 169 164 163 157 154 143 131 42 58 47 68 104 121 95 40 14 1 356 352 350 349 349
161 156 157 158 159 157 164 170 161 158 171 200 174 158 160 192 235 323 289 206 192 188 196 189 179 174 163 161 218 353 36 4 326 328 325 336 332 331 333 332 333 335 337
174 158 155 157 165 165 166 178 172 160 162 184 204 184 160 155 160 185 297 283 233 208 208 200 195 188 182 184 191 169 188 278 278 284 293 301 311 315 318 321 323 322 324
194 177 164 160 166 168 168 168 165 165 169 177 184 182 117 79 133 157 213 253 285 262 233 216 202 198 197 194 203 210 215 236 254 273 285 296 304 305 308 312 315 315 317
201 204 182 172 173 171 171 175 171 170 177 171 176 178 176 168 176 164 189 214 235 257 254 233 212 209 202 200 212 211 223 234 251 266 280 293 304 306 306 306 308 309 311
196 209 199 187 183 183 176 170 168 173 178 177 181 193 196 197 171 165 160 198 237 263 255 243 227 214 208 203 219 216 227 238 257 268 277 289 302 310 309 306 302 303 307
195 197 194 192 186 180 177 169 165 171 172 178 188 184 190 203 188 180 170 164 205 270 255 247 248 223 211 207 224 213 232 246 259 270 277 285 297 307 307 305 303 301 302
188 191 186 190 187 179 178 172 171 175 163 173 187 188 192 202 195 189 178 174 170 208 241 239 240 244 232 213 231 214 228 255 263 269 276 281 289 295 299 299 300 300 301
186 189 189 189 188 186 178 172 169 171 163 173 190 188 195 199 192 187 184 187 184 186 227 233 237 246 238 240 237 231 237 262 267 273 275 281 282 289 292 293 295 297 300
183 191 190 188 190 189 182 176 180 176 178 181 192 194 205 190 182 180 183 187 198 186 224 254 246 248 223 230 251 263 259 249 259 269 272 277 280 284 288 291 291 292 294
185 189 184 183 189 192 187 184 185 190 190 191 198 197 207 191 187 183 184 199 208 203 203 241 252 238 234 228 232 244 261 255 253 270 275 276 280 284 286 289 291 293 294
188 191 185 187 193 193 196 197 192 197 199 199 199 201 205 190 202 200 201 206 217 225 206 216 244 246 248 233 239 259 261 268 268 273 274 277 282 288 288 293 292 290 291
190 194 193 194 194 193 198 199 197 200 201 200 202 203 204 202 207 207 210 209 208 217 213 216 238 251 253 241 211 242 273 269 271 275 272 277 284 289 288 293 293 291 289
194 191 188 194 197 197 200 197 197 199 197 200 204 207 213 217 216 218 218 207 199 205 207 217 231 249 246 233 229 227 260 282 275 252 259 270 276 273 279 288 290 290 289
193 187 187 192 199 212 211 204 199 198 198 199 206 213 220 221 224 234 237 228 213 206 205 211 224 233 243 232 219 225 238 273 281 253 229 268 251 263 268 260 278 287 291
186 188 191 193 205 216 211 206 204 198 200 206 206 206 224 236 236 226 242 245 235 229 218 209 219 233 236 224 208 226 228 232 249 256 250 265 259 264 266 274 283 286 290
182 188 194 198 204 221 215 210 206 199 200 209 211 209 217 228 232 231 229 238 238 236 226 218 222 232 234 225 213 218 224 245 262 256 219 253 258 260 273 269 278 282 290
179 183 184 185 198 228 224 214 201 191 204 218 221 220 221 225 236 236 226 233 245 251 244 232 233 241 246 247 232 201 210 233 268 264 213 224 257 278 274 266 270 282 290
180 174 180 191 197 215 225 219 207 191 208 223 228 230 233 236 239 236 221 216 237 246 230 239 247 253 247 243 242 224 210 222 246 261 224 200 245 291 295 268 254 267 284